Tracking 19720 objects as of 26-Jun-2019
HD Live streaming from Space Station
objects crossing your sky now

COSMOS 1375 DEB

Track COSMOS 1375 DEB now!
10-day predictions


NORAD ID: 17804
Int'l Code: 1982-055AW
Perigee: 908.7 km
Apogee: 921.3 km
Inclination: 65.8 °
Period: 103.2 minutes
Semi major axis: 7285 km
RCS: 0.0158 m2 (small)
Launch date: June 6, 1982
Source: Commonwealth of Independent States (former USSR) (CIS)
Launch site: PLESETSK MISSILE AND SPACE COMPLEX (PKMTR)

Note: This is SATELLITE DEBRIS
aabbcc
Your satellite tracking list
Your tracking list is empty




NASA's NSSDC Master Catalog

Two Line Element Set (TLE):
1 17804U 82055AW  19177.16849495  .00000214  00000-0  21824-3 0  9998
2 17804  65.8202  70.0264 0008644  28.6552 127.5288 13.95953387701323
Source of the keplerian elements: AFSPC